sat.trackr.live / text

‹ back to catalog

SKYNET 4C

NORAD 20776 · 1990-079A

PAYLOAD ACTIVE UNKNOWN

§ Identity

Operator
Country
UK
Launch date
1990-08-30
Launch site
FRGUI
Launch vehicle
Mass (kg)
RCS (m²)
11.11

Purposes: comms

External: N2YO · Heavens-Above · Gunter

§ Orbital elements

Epoch: 2026-08-15T01:37:06.663072Z

Period
1,460.75 min
Inclination
13.3194°
Eccentricity
0.0002856
Mean motion
0.98579573 rev/d
Perigee alt
36,255.6 km
Apogee alt
36,279.9 km
Semi-major
42,645.9 km
B*
0.0000e+0
RAAN
349.4402°
Arg perigee
148.9621°
Mean anomaly
212.0590°
Rev number
62

§ Raw data

SKYNET 4C1 20776U 90079A   26227.06743823 -.00000203  00000+0  00000+0 0  99932 20776  13.3194 349.4402 0002856 148.9621 212.0590  0.98579573   623

JSON: /api/v1/satellites/20776 · /tle

For live sub-satellite position, see the globe view (requires WebGL).

§ Visibility from observer

Set your observer location to see the next 7 days of passes ≥ 10°. The values pass through the URL so the page stays shareable.

No JS? Fill the form by hand. The geolocation button needs JavaScript.